sat.trackr.live / text

‹ back to catalog

STARLINK-3796

NORAD 52372 · 2022-045AT

PAYLOAD ACTIVE UNKNOWN

§ Identity

Operator
Country
US
Launch date
2022-04-29
Launch site
AFETR
Launch vehicle
Mass (kg)
RCS (m²)

Purposes: comms

External: N2YO · Heavens-Above · Gunter

§ Orbital elements

Epoch: 2026-09-19T22:01:09.573024Z

Period
93.85 min
Inclination
53.1610°
Eccentricity
0.0001102
Mean motion
15.34385946 rev/d
Perigee alt
462.0 km
Apogee alt
463.5 km
Semi-major
6,840.9 km
B*
2.1649e-5
RAAN
22.5996°
Arg perigee
89.1039°
Mean anomaly
271.0089°
Rev number
24,543

§ Raw data

STARLINK-37961 52372U 22045AT  26262.91747191  .00000355  00000+0  21649-4 0  99972 52372  53.1610  22.5996 0001102  89.1039 271.0089 15.34385946245437

JSON: /api/v1/satellites/52372 · /tle

For live sub-satellite position, see the globe view (requires WebGL).

§ Visibility from observer

Set your observer location to see the next 7 days of passes ≥ 10°. The values pass through the URL so the page stays shareable.

No JS? Fill the form by hand. The geolocation button needs JavaScript.